Tracking 31027 objects as of 19-Jul-2025
HD Live streaming from Space Station
objects crossing your sky now

GAOFEN 9 04

Track GAOFEN 9 04 now!
10-day predictions


NORAD ID: 46025
Int'l Code: 2020-054A
Perigee: 478.2 km
Apogee: 495.1 km
Inclination: 97.3 °
Period: 94.2 minutes
Semi major axis: 6857 km
RCS: Unknown
Launch date: August 6, 2020
Source: People's Republic of China (PRC)
Launch site: Jiuquan Satellite Launch Center, China (JSC)
Your satellite tracking list
TITAN 3C TRANSTAGE DEB
Track 1 satellite(s)




NASA's NSSDC Master Catalog

Two Line Element Set (TLE):
1 46025U 20054A   25199.86609329  .00007522  00000-0  27117-3 0  9994
2 46025  97.2866 269.7285 0012306 196.5103 163.5738 15.28752630275290
Source of the keplerian elements: AFSPC